Simultaneous Nadir Overpasses (SNOs) Predictions

Prediction of SNOs between AQUA and METOP-B Satellite Orbit:

Table of predicted SNOs for the next 14.0 days since TLE Epoch: 9/7/2024
Index Date (AQUA) Time (AQUA) Lat,Lon (AQUA) SZA (AQUA ) Date (METOP-B) Time (METOP-B) Lat,Lon (METOP-B) SZA (METOP-B ) Distance(km) Time Diff (sec)
1 09/08/2024 11:09:12 76.17, 10.58 70.69 09/08/2024 11:07:59 76.08, 10.25 70.60 13.43 73
2 09/08/2024 11:58:33 -76.22, 178.10 109.26 09/08/2024 11:58:37 -76.24, 178.13 109.23 2.63 4
3 09/08/2024 12:48:02 76.55, -15.37 71.11 09/08/2024 12:49:10 76.56, -13.38 71.11 51.52 68
4 09/11/2024 02:29:10 -76.24, -39.58 108.25 09/11/2024 02:28:54 -76.21, -39.57 108.28 3.41 16
5 09/11/2024 03:18:32 76.24, 128.07 71.78 09/11/2024 03:19:33 76.26, 127.93 71.79 3.87 61
6 09/13/2024 16:59:42 -76.20, 102.96 107.29 09/13/2024 16:59:10 -76.20, 102.81 107.29 4.00 32
7 09/13/2024 17:49:05 76.26, -89.58 72.79 09/13/2024 17:49:48 76.29, -89.55 72.82 3.05 43
8 09/16/2024 07:30:10 -76.20,-114.62 106.29 09/16/2024 07:29:24 -76.21,-114.75 106.28 3.38 46
9 09/16/2024 08:19:33 76.27, 52.83 73.80 09/16/2024 08:20:02 76.29, 52.89 73.82 3.28 29
10 09/18/2024 22:00:36 -76.24, 27.70 105.24 09/18/2024 21:59:38 -76.24, 27.77 105.25 2.15 58
11 09/18/2024 22:49:58 76.27,-164.71 74.80 09/18/2024 22:50:17 76.28,-164.76 74.81 1.58 19



Historial Predications of SNOs between AQUA and METOP-B
